Regional Weather Roundup
Issued by NWS

Home | Current Version | Previous Version | Graphics & Text | Print | Product List | Glossary On
Versions: 1 2 3 4 5 6 7 8 9 10 11 12 13 14 15 16 17 18 19 20 21 22 23 24 25 26 27 28 29 30 31 32 33 34 35 36 37 38 39 40 41 42 43 44 45 46 47 48 49 50
000
ASUS43 KDMX 011704
RWRIA

WEATHER ROUNDUP FOR IOWA
NATIONAL WEATHER SERVICE DES MOINES IA
  ISSUED BY NWS QUAD CITIES IA IL
1100 AM CST SUN FEB 01 2015

NOTE: "FAIR" INDICATES FEW OR NO CLOUDS BELOW 12,000 FEET WITH NO
SIGNIFICANT WEATHER AND/OR OBSTRUCTIONS TO VISIBILITY.

* - THESE STATIONS ARE NOT NWS STATIONS...THUS NOT UNDER NWS
QUALITY CONTROL.  THEY ALSO DO NOT REPORT WEATHER SUCH
AS PRECIPITATION OR FOG.

IAZ001>003-012>014-020>022-031>034-043>046-011800-
   NORTHWEST IOWA

CITY           SKY/WX    TMP DP  RH WIND       PRES   REMARKS
CARROLL *      SNOW      19  16  86 N24G35    29.99R VSB 1/4 WCI   2
CHEROKEE *     LGT SNOW  15  12  89 N15G30    30.10R WCI  -1
DENNISON *     HVY RAIN  18  16  93 N24G31    29.99R VSB 1/2 WCI   0
LE MARS *      LGT SNOW  12  10  92 N25G33    30.17R VSB 3/4 WCI  -8
ORANGE CITY *  LGT SNOW  12   9  85 N18G30    30.14R VSB 3/4 WCI  -5
SHELDON *      SNOW      10   7  85 N30G38    30.13R VSB 1/4 WCI -12
SIOUX CITY     SNOW      14  10  84 N30       30.16R VSB 1/2 WCI  -7
SPENCER        LGT SNOW  15   9  76 N29G36    30.11R VSB 3/4 WCI  -5
STORM LAKE *   SNOW      16  12  86 N31G37    30.04R VSB 1/2 WCI  -5
$$

IAZ055>058-069>071-079>083-090>094-011800-
   SOUTHWEST IOWA

CITY           SKY/WX    TMP DP  RH WIND       PRES   REMARKS
ATLANTIC *     LGT SNOW  21  18  86 N22G30    29.93R VSB 3/4 WCI   5
AUDUBON *      SNOW      19  16  86 N18G29    29.95R VSB 1/2 WCI   4
CLARINDA *     MIX PCPN  25  23  93 N22G30    29.89R VSB 3/4 WCI  10
COUNCIL BLFS * SNOW      19  18  93 N23G36    29.98R VSB 1/2 WCI   2
CRESTON *      HVY RAIN  27  27 100 N25G36    29.82R VSB 1/4 WCI  11
HARLAN *       SNOW      19  19 100 N23G31    30.01R VSB 1/2 WCI   2
LAMONI         SNOW      33  31  92 N10       29.76R VSB 1/2 WCI  25
RED OAK *      SNOW      21  19  93 N26G37    29.93R VSB 1/4 WCI   4
$$

IAZ047>049-059>061-072>074-084-011800-
   CENTRAL IOWA

CITY           SKY/WX    TMP DP  RH WIND       PRES   REMARKS
AMES           LGT SNOW  20  16  84 NE21G30   29.94R VSB 3/4 WCI   4
ANKENY *       SNOW      21  19  93 MISG      29.90R VSB 1/4
BOONE *        SNOW      19  18  93 MISG      29.92R VSB 1/4
CHARITON *     LGT SNOW  30  30 100 NE21G28   29.78R VSB 3/4 WCI  17
DES MOINES     HVY SNOW  23  19  85 NE21G29   29.88R VSB 1/4 WCI   8
KNOXVILLE *    SNOW      25  23  93 NE20G30   29.81R VSB 1/2 WCI  11
MARSHALLTOWN   SNOW      19  16  88 NE23G35   29.90R VSB 1/4 WCI   2
NEWTON *       LGT SNOW  21  19  93 NE22G32   29.86R VSB 3/4 WCI   5
PELLA *        HVY RAIN  26  23  91 NE9       29.84R WCI  16
PERRY *        SNOW      21  19  93 N14       29.95R VSB 1/2 WCI   8
$$

IAZ004>006-015-016-023>025-035-036-011800-
   NORTH CENTRAL IOWA

CITY           SKY/WX    TMP DP  RH WIND       PRES   REMARKS
ALGONA *       SNOW      16  12  86 N29G35    30.06R VSB 1/2 WCI  -4
CLARION *      SNOW      18  16  93 NE32      30.00R VSB 1/4 WCI  -3
ESTHERVILLE    FOG       13  11  92 N25G32    30.11R VSB 1/2 WCI  -7
FORT DODGE *   CLOUDY    19  12  73 CALM      30.02R
MASON CITY     SNOW      15  11  83 NE28G33   30.05R VSB 1/2 WCI  -5
FOREST CITY *  LGT SNOW  18  12  79 N23G30    30.05R VSB 3/4 WCI   0
WEBSTER CITY * SNOW      18  18 100 NE24G39   29.96R VSB 1/2 WCI   0
IOWA FALLS *   LGT SNOW  18  14  86 NE20G30   29.96R VSB 3/4 WCI   2
$$

IAZ007>011-017>019-026>030-037>042-050>054-066-011800-
   NORTHEAST IOWA

CITY           SKY/WX    TMP DP  RH WIND       PRES   REMARKS
CEDAR RAPIDS   SNOW      20  19  96 NE25      29.86R VSB 1/4 WCI   2
CHARLES CITY * LGT SNOW  16  12  86 NE26G33   30.01R VSB 3/4 WCI  -3
CLINTON *      CLOUDY   N/A N/A N/A NE32G41   29.83F VSB 1/2
DECORAH *      LGT SNOW  16  10  79 N16G29    30.02R VSB 3/4 WCI   0
DUBUQUE        HVY SNOW  18  15  88 NE23G31   29.89F VSB 1/4 WCI   0
MONTICELLO *   LGT SNOW  21  19  93 NE18G30   29.89R VSB 3/4 WCI   6
OELWEIN *      SNOW      18  14  86 NE28G37   29.94R VSB 1/4 WCI  -1
WATERLOO       SNOW      17  15  92 NE21G26   29.96R VSB 1/2 WCI   0
$$

IAZ064-065-067-068-078-011800-
   EAST CENTRAL IOWA

CITY           SKY/WX    TMP DP  RH WIND       PRES   REMARKS
DAVENPORT      SNOW      26  23  88 NE22      29.81F VSB 1/2 WCI  12
IOWA CITY      LGT SNOW  24  21  88 NE21G28   29.86R VSB 3/4 WCI   9
MT. PLEASANT * LGT SNOW  32  32 100 NE12      29.75S VSB 1   WCI  23
MUSCATINE *    LGT SNOW  28  27  93 NE26      29.80S WCI  13
QUAD CITIES    SNOW      29  26  89 NE20G28   29.79S VSB 1/2 WCI  16
$$

IAZ062-063-075>077-085>089-095>099-011800-
   SOUTHEAST IOWA

CITY           SKY/WX    TMP DP  RH WIND       PRES   REMARKS
BURLINGTON     CLOUDY    33  32  96 NE8       29.74R FOG     WCI  26
FAIRFIELD *    SNOW      30  28  93 NE25      29.77R VSB 1/2 WCI  16
FORT MADISON * LGT SNOW  32  32 100 NE6       29.74S WCI  26
KEOKUK *       LGT SNOW  34  34 100 NE6       29.72S WCI  29
OSKALOOSA *    LGT SNOW  28  26  92 NE17      29.80R WCI  16
OTTUMWA        LGT SNOW  29  28  96 NE20G28   29.78R VSB 1   WCI  16
WASHINGTON *   SNOW      28  28 100 NE24G35   29.78S VSB 1/4 WCI  14
$$

ABBREVIATIONS USED IN REMARKS
   TC - TEMPERATURES IN CELSIUS
  WCI - WIND CHILL INDEX
   HX - HEAT INDEX
  VSB - VISIBILITY
$$



USA.gov is the U.S. government's official web portal to all federal, state and local government web resources and services.